Portada
METAR-TAF:

METAR-TAF

Aeroports :

Tanegashima, Japó

latitud: 30-33N, longitud: 130-57E, altitud: 92 m

Observació

L'informe es va fer fa 8 hores i 26 minuts, a les 09:00 UTC
Vent 4 kt del Nord/Nord-Oest
Temperatura 17°C
Humitat 82%
Pressió 1021 hPa
Visibilitat 10 km o més
Escasses núvols a una alçada de 1500 ft

METAR: RJFG 260900Z 33004KT 9999 FEW015 17/14 Q1021

Hora: 02:26 (17:26 UTC)


TAF: manca

Observacions i pronòstics meteorològics de més de 4000 aeroports (METAR i TAF).

Les estacions disponibles són els punts grocs i vermells al mapa.

Posi el ratolí al punt desitjat per veure el nom de l'estació.

Feu clic per veure les observacions i els pronòstics meteorològics.

Per canviar el mapa: feu clic els botons verds amb una creu de color negre per apropar; al botó verd amb un guió per allunyar la imatge; o en les fletxes verdes per a mapes adjacents.


METAR-TAF: